Starlink 31010

operational
NORAD ID: 58519 Int'l Des: 2023-191 Owner: SPXS Country: US Constellation: starlink
LEOCIRCULAR

About Starlink 31010

Description loading...

Live Position

Loading 3D Globe...

Upcoming Passes

Altitude History

Altitude vs Time

uPlot chart will show altitude changes over time

Two-Line Element Set

1 58519U 23191M 25257.50793395 .00000452 00000-0 48559-4 0 9992
2 58519 43.0047 342.8579 0001157 272.4411 87.6299 15.02536274 98947
Epoch: Sep 14, 2025 • Age: 22 hours

Current Status

Altitude 559.4 km
Velocity 7.58 km/s
Sub-Earth Point -3.56°S, 20.89°E
Launch Date Dec 7, 2023
Age 1.7 years
Type internet

Technical Details

Classification Payload
Mass 730.00 kg
Dry Mass 700.00 kg
Total Mass 730.00 kg
Length 0.30 m
Diameter 4.10 m
Span 29.00 m
Shape Box + pan
Manufacturer SPXS
Bus Type Starlink V2M
Phase Status In Orbit
Owner/State SPXS/US

Large Constellations

Loading constellations...